Погода в Самбрвиле

Бельгия     50°14′59″N   4°23′05″E
темп.,
°C
ветер,
м/с
пор.,
м/с
влажн.,
%
обл.,
%
осадки,
мм/ч
давл.,
гПа
погр.,
м
24 сентября, пт
пт2423:00+12зюз369367 0.0 1020124
02:00+13юз3791100 0.0 1019187
05:00+14юз4897100 0.0 1018243
08:00+13юз4997100 0.1 1018330
11:00+14юз5892100 0.1 1019416
14:00+17зюз568179 0.1 1018711
17:00+19зюз467284 0.1 10161023
20:00+14юз33860 0.1 101729
25 сентября, сб
сб2523:00+12юз33890 0.0 101739
02:00+11ююз23900 0.0 101729
05:00+11ююз33900 0.0 101735
08:00+11ююз22893 0.0 101726
11:00+17ю2270100 0.0 1017262
14:00+20ю125785 0.0 1016758
17:00+22ююв125295 0.0 10151042
20:00+16вюв117731 0.0 101512
26 сентября, вс
вс2623:00+14юв2280100 0.0 101512
02:00+15ююв2278100 0.0 101525
05:00+15ююв237860 0.0 101446
08:00+13ю369496 0.0 1015105
11:00+20ююз46735 0.0 1015451
14:00+22юз576363 0.0 10151182
17:00+19ююз597698 1.0 1014527
20:00+15ю5119216 1.0 1015266
27 сентября, пн
пн2723:00+14ю499686 0.0 1016200
02:00+15ю4989100 0.0 1015220
05:00+15ю61285100 0.1 1014390
08:00+14ююз61390100 0.1 1015394
11:00+16ююз71485100 0.1 1016919
14:00+14з59802 1.0 1020770
17:00+17з57594 0.0 10211543
20:00+11з347419 0.0 102472
28 сентября, вт
вт2823:00+9зюз2278100 0.0 102616
02:00+8ю1179100 0.0 102613
05:00+8ю1180100 0.0 102612
08:00+8юв2281100 0.0 102516
11:00+13юв2267100 0.0 1024230
14:00+15юв1259100 0.0 1022616
17:00+16ююв1359100 0.0 1020828
20:00+11ю33775 0.0 101929